Regional Weather Roundup
Issued by NWS

Home | Current Version | Previous Version | Graphics & Text | Print | Product List | Glossary Off
Versions: 1 2 3 4 5 6 7 8 9 10 11 12 13 14 15 16 17 18 19 20 21 22 23 24 25 26 27 28 29 30 31 32 33 34 35 36 37 38 39 40 41 42 43 44 45 46 47 48 49 50

000
ASUS43 KIND 032009
RWRIN

WEATHER ROUNDUP FOR INDIANA
NATIONAL WEATHER SERVICE INDIANAPOLIS IN
400 PM EDT FRI JUL 03 2015

NOTE: "FAIR" INDICATES FEW OR NO CLOUDS BELOW 12,000 FEET WITH NO
SIGNIFICANT WEATHER AND/OR OBSTRUCTIONS TO VISIBILITY.

* - STATION DOES NOT REPORT WEATHER SUCH AS PRECIPITATION OR FOG.

+ - STATION NOT QUALITY CONTROLLED BY THE NATIONAL WEATHER SERVICE.
    USE DATA WITH CAUTION...ESPECIALLY DEWPOINT AND RELATIVE
    HUMIDITY OBSERVATIONS.

INZ001>003-010>013-019-020-032100-
NORTHWEST INDIANA

CITY           SKY/WX    TMP DP  RH WIND       PRES   REMARKS
GARY /AIRPORT/ PTSUNNY   73  59  60 NE9       29.96F
KNOX *+        PTSUNNY   75  55  50 N5        29.93F
LA PORTE +     MOSUNNY   77  57  50 NE7       29.95F
MICHIGAN CITY+ MOSUNNY   72  55  56 N10       29.96F
MONTICELLO +   CLOUDY    73  61  65 NE3       29.92F
RENSSELAER +   CLOUDY    75  59  57 NE6       29.93F
VALPARAISO     PTSUNNY   75  59  57 N8        29.95F

$$

LMZ046-743>745-032100-
SOUTHERN LAKE MICHIGAN

STATION/POSITION TIME  TEMP    WIND        PRES    WAVE
                       AIR SEA DIR/SP/G            HT
                 (UTC) (F)     (DEG/KT/KT) (MB)    (FT)
BURNS HARBOR     2000   64      10/ 10/ 12 1014.9F
MICHIGAN CITY    2000   63     360/  8/ 10   N/A
5NW MICH CITY    2000   64 64   20/ 10/ 12   N/A     1

$$

INZ004-005-014>016-021>024-032100-
NORTH CENTRAL INDIANA

CITY           SKY/WX    TMP DP  RH WIND       PRES   REMARKS
ELKHART        MOSUNNY   75  54  46 NE5       29.95
GOSHEN         MOSUNNY   74  57  55 VRB3      29.94F
LOGANSPORT +   CLOUDY    73  55  53 NE5       29.93F
PERU/GRISSOM   PTSUNNY   74  62  66 E7        29.91F
ROCHESTER +    PTSUNNY   77  59  53 NE3       29.94S
SOUTH BEND     MOSUNNY   76  56  49 NW7       29.95F
WARSAW +         N/A     73  55  53 E3        29.94F

$$

INZ006>009-017-018-025>027-032100-
NORTHEAST INDIANA

CITY           SKY/WX    TMP DP  RH WIND       PRES   REMARKS
ANGOLA *+        N/A     75  54  46 CALM      29.94F
AUBURN +       PTSUNNY   73  54  49 E5        29.95F
FORT WAYNE     CLOUDY    76  60  57 NE8       29.94F
HUNTINGTON +   PTSUNNY   75  60  60 NE5       29.92F

$$

INZ028-029-035-036-043>045-051>053-032100-
WEST CENTRAL INDIANA

CITY           SKY/WX    TMP DP  RH WIND       PRES   REMARKS
CRAWFORDSVL +  PTSUNNY   74  60  61 N7        29.91S
GREENCASTLE +  PTSUNNY   73  61  64 NE6       29.90S
LAFAYETTE      CLOUDY    74  62  66 VRB6      29.91F
TERRE HAUTE    CLOUDY    76  66  71 NE9       29.89R

$$

INZ030>032-037>040-046>048-054>057-064-065-032100-
CENTRAL INDIANA

CITY           SKY/WX    TMP DP  RH WIND       PRES   REMARKS
ANDERSON       CLOUDY    73  55  53 NE6       29.92S
CP ATTERBURY + CLOUDY    68  64  88 NE3       29.90S FOG
FRANKFORT +    PTSUNNY   72  63  75 N10       29.94S
GREENWOOD *+   CLOUDY    70  64  83 SE3       29.90F
INDIANAPOLIS   CLOUDY    73  62  68 NE8       29.88S
-EAGLE CREEK   PTSUNNY   75  64  68 N6        29.89F
KOKOMO *+      CLOUDY    72  63  73 NE6       29.92S
MARION +       PTSUNNY   74  61  62 NE10      29.92F
MT COMFORT *+  MOSUNNY   75  55  50 NE7       29.90S
SHELBYVILLE    LGT RAIN  69  66  90 S5        29.89S FOG
ZIONSVILLE +   CLOUDY    74  62  64 NE8       29.91F

$$

INZ033-034-041-042-049-050-058-059-032100-
EAST CENTRAL INDIANA

CITY           SKY/WX    TMP DP  RH WIND       PRES   REMARKS
MUNCIE         MOSUNNY   76  62  62 E7        29.90F

$$

INZ060-061-067>069-081>083-085>088-032100-
SOUTHWEST INDIANA

CITY           SKY/WX    TMP DP  RH WIND       PRES   REMARKS
EVANSVILLE     PTSUNNY   82  71  69 NW10      29.85F HAZE
HUNTINGBURG *+ CLOUDY    75  68  78 NE8       29.86F
WASHINGTON +   PTSUNNY   77  67  71 N7        29.86F

$$

INZ062-063-066-070>080-084-089>092-032100-
SOUTH CENTRAL AND SOUTHEAST INDIANA

CITY           SKY/WX    TMP DP  RH WIND       PRES   REMARKS
BLOOMINGTON    CLOUDY    71  65  81 N6        29.89F
MADISON *+     MOSUNNY   73  68  83 CALM      29.88S
NORTH VERNON + CLOUDY    75  66  73 N6        29.88S
SEYMOUR +      CLOUDY    75  68  78 N10       29.88S

$$




USA.gov is the U.S. government's official web portal to all federal, state and local government web resources and services.